Regional Weather Roundup
Issued by NWS Midland/Odessa, TX

Home | Current Version | Previous Version | Text Only | Print | Product List | Glossary On
Versions: 1 2 3 4 5 6 7 8 9 10 11 12 13 14 15 16 17 18 19 20 21 22 23 24 25 26 27 28 29 30 31 32 33 34 35 36 37 38 39 40 41 42 43 44 45 46 47 48 49 50
000
ASUS44 KMAF 201110
RWRMAF
MIDLAND AREA WEATHER ROUNDUP
NATIONAL WEATHER SERVICE MIDLAND TX
500 AM CST MON FEB 20 2017

...IN SOUTHWEST TEXAS AND SOUTHEAST NEW MEXICO...

CITY           SKY/WX    TMP DP  RH WIND       PRES   REMARKS
ALPINE         CLEAR     47  31  53 W17G26    30.10R
ANDREWS        FAIR      45  30  55 W9        29.96R
ARTESIA        CLEAR     41  32  70 SW10      29.99R WCI  35
BIG SPRING     PTCLDY    46  35  66 SW10      29.95S
CARLSBAD       CLEAR     47  33  58 CALM      29.97S
DRYDEN           N/A     50  41  71 W10       29.97R
FORT STOCKTON  CLEAR     45  28  51 SW12      29.99S WCI  39
GUAD PASS      CLEAR     37  32  82 SW29      30.03R WCI  25
HOBBS          CLEAR     41  28  60 W13       29.96S WCI  34
MARFA          CLEAR     41  29  62 W12       30.08S WCI  34
MIDLAND AIRPK  CLEAR     48  32  53 W9        29.95S
MIDLAND INTL   CLEAR     47  32  56 W12       29.94S
ODESSA         CLEAR     46  29  51 W9        29.95S
PECOS          CLEAR     44  31  60 W8        29.98S WCI  39
PRESIDIO       FAIR      53  30  42 SW10      30.09R
SEMINOLE       CLEAR     42  31  63 W13       29.95R WCI  35
SNYDER         MOCLDY    46  39  78 W10       29.91R
WINK           CLEAR     44  31  60 W12       29.96S WCI  38
$$
...OTHER STATIONS IN TEXAS...

CITY           SKY/WX    TMP DP  RH WIND       PRES   REMARKS
ABILENE        MOCLDY    52  52 100 SW10      29.88S
AMARILLO       CLEAR     41  32  70 SW13      29.80S WCI  34
AUSTIN         LGT RAIN  59  59 100 NW3       29.91F
BROWNSVILLE    PTCLDY    74  72  93 S8        29.83R
CORPUS CHRISTI TSTM      64  63  96 NW16      29.87R VSB 1
DALLAS FTW     CLOUDY    59  57  93 E9        29.82F
DEL RIO        CLOUDY    57  50  77 NW10      29.92S
EL PASO        PTCLDY    48  34  58 W23G35    30.04F
HOUSTON INT    CLOUDY    71  67  87 SE6       29.90S
LUBBOCK        PTCLDY    42  32  67 W12       29.86R WCI  36
SAN ANGELO     CLOUDY    52  48  86 W8        29.91S
SAN ANTONIO    CLOUDY    59  58  96 NW5       29.88F
WACO           LGT RAIN  57  56  96 MISG      29.92R
WICHITA FALLS  NOT AVBL
$$
...OTHER LOCATIONS IN NEW MEXICO...

CITY           SKY/WX    TMP DP  RH WIND       PRES   REMARKS
ALAMAGORDO     CLEAR     41  30  65 NE10      30.05R WCI  35
ALBUQUERQUE    CLOUDY    42  33  70 W6        30.05R WCI  38
CANNON AFB     CLEAR     36  36 100 W10       29.88S WCI  28
CLOVIS         CLEAR     36  28  75 SW12      29.87S WCI  27
HOLLOMAN AFB   CLEAR     37  30  75 NE6       30.08R WCI  33
ROSWELL        CLEAR     33  26  75 CALM        N/A
RUIDOSO        CLEAR     37  25  60 NW21G38   30.01S WCI  27
SANTA FE       CLOUDY    34  30  85 NW5       30.02R WCI  30
TRUTH OR CONSE CLEAR     44  30  57 NW12      30.05S WCI  38
TUCUMCARI      CLEAR     43  32  65 W13       29.83R WCI  36
$$




USA.gov is the U.S. government's official web portal to all federal, state and local government web resources and services.